Location: Burgerwiesen
(48.6500°N, 15.6167°E)
Time: 09:24:16
(UTC+00:00)

Cosmos 2151 - Pass Details

Date: 09 April 2020
Orbit: 582 x 600 km, 82.5° (Epoch: 23 May)

Event Time Altitude Azimuth Distance (km) Brightness Sun altitude
Rises 19:24:30 0° 359° (N) 2,818 6.9 -16.5°
Reaches altitude 10° 19:26:58 10° 11° (NNE) 1,913 5.9 -16.8°
Maximum altitude 19:30:36 27° 71° (ENE) 1,125 4.1 -17.3°
Enters shadow 19:31:02 27° 82° (E) 1,140 4.0 -17.4°
